Change the Weather History Date:

Thursday, August 8, 2013

  Actual Average Record
Temperature  
Mean Temperature 80 °F -  
Max Temperature 93 °F 88 °F 102 °F (1954)
Min Temperature 69 °F 66 °F 52 °F (1989)
Cooling Degree Days 15    
Growing Degree Days 30 (Base 50)    
Moisture  
Dew Point 72 °F    
Average Humidity 86    
Maximum Humidity 96    
Minimum Humidity 62    
Precipitation  
Precipitation 0.03 in - - ()
Sea Level Pressure  
Sea Level Pressure 29.98 in    
Wind  
Wind Speed 4 mph (SE)    
Max Wind Speed 15 mph    
Max Gust Speed 21 mph    
Visibility 9 miles    
Events Rain , Thunderstorm    
Averages and records for this station are not official NWS values.
T = Trace of Precipitation, MM = Missing Value Source: NWS Daily Summary

Daily Weather History Graph

Daily Weather History Graph

Search for Another Location

Airport or City:

Trip Planner

Search our weather history database for the weather conditions in past years. The results will help you decide how hot, cold, wet, or windy it might be!

Date:

Astronomy

Aug. 08, 2013 Rise Set
Actual Time 6:03 AM CDT 7:42 PM CDT
Civil Twilight 5:36 AM CDT 8:09 PM CDT
Nautical Twilight 5:03 AM CDT 8:42 PM CDT
Astronomical Twilight 4:28 AM CDT 9:16 PM CDT
Moon 7:42 AM CDT (8/8) 8:29 PM CDT (8/8)
Length of Visible Light 14h 33m
Length of Day
13h 39m
Waxing Crescent, 3% of the Moon is Illuminated
Aug 8
Waxing Crescent
Aug 14
First Quarter
Aug 20
Full
Aug 28
Last Quarter
Sep 5
New

Hourly Weather History & Observations

Time (CDT) Temp. Heat Index Dew Point Humidity Pressure Visibility Wind Dir Wind Speed Gust Speed Precip Events Conditions
12:53 AM 72.0 °F - 70.0 °F 93% 29.98 in 10.0 mi ESE 3.5 mph - N/A   Clear
1:53 AM 72.0 °F - 70.0 °F 93% 29.96 in 10.0 mi Calm Calm - N/A   Clear
2:53 AM 71.1 °F - 69.1 °F 93% 29.96 in 10.0 mi Calm Calm - N/A   Clear
3:53 AM 71.1 °F - 69.1 °F 93% 29.95 in 10.0 mi East 3.5 mph - N/A   Clear
4:53 AM 69.1 °F - 68.0 °F 96% 29.96 in 7.0 mi Calm Calm - N/A   Clear
5:53 AM 70.0 °F - 68.0 °F 93% 29.98 in 10.0 mi East 3.5 mph - N/A   Clear
6:53 AM 71.1 °F - 68.0 °F 90% 29.97 in 10.0 mi ESE 4.6 mph - N/A   Clear
7:53 AM 75.0 °F - 70.0 °F 84% 29.98 in 10.0 mi SE 5.8 mph - N/A   Partly Cloudy
8:53 AM 78.1 °F - 72.0 °F 81% 29.99 in 10.0 mi South 8.1 mph - N/A   Partly Cloudy
9:53 AM 81.0 °F 86.2 °F 73.9 °F 79% 30.00 in 9.0 mi SSE 4.6 mph - N/A   Overcast
10:53 AM 84.0 °F 91.9 °F 75.0 °F 74% 30.01 in 9.0 mi South 6.9 mph - N/A   Clear
11:53 AM 86.0 °F 96.0 °F 75.9 °F 72% 30.00 in 9.0 mi SSE 5.8 mph - N/A   Scattered Clouds
12:53 PM 89.1 °F 100.2 °F 75.9 °F 65% 29.97 in 9.0 mi Variable 6.9 mph - N/A   Partly Cloudy
1:53 PM 91.9 °F 105.9 °F 77.0 °F 62% 29.94 in 9.0 mi SSE 5.8 mph - N/A   Partly Cloudy
2:14 PM 87.8 °F 97.6 °F 75.2 °F 66% 29.96 in 9.0 mi SSE 6.9 mph - N/A Thunderstorm Scattered Clouds
2:53 PM 84.0 °F 89.0 °F 71.1 °F 65% 29.94 in 10.0 mi SSW 15.0 mph 20.7 mph N/A Thunderstorm Thunderstorm
3:35 PM 77.0 °F - 71.6 °F 83% 29.99 in - North 5.8 mph - N/A Thunderstorm Thunderstorm
3:53 PM 75.9 °F - 72.0 °F 87% 29.95 in 10.0 mi ENE 5.8 mph - N/A Thunderstorm Thunderstorm
4:22 PM 75.2 °F - 69.8 °F 83% 29.98 in 10.0 mi ENE 8.1 mph - N/A   Clear
4:53 PM 75.0 °F - 70.0 °F 84% 29.97 in 10.0 mi East 5.8 mph - N/A   Clear
5:53 PM 75.9 °F - 71.1 °F 85% 29.97 in 10.0 mi East 3.5 mph - N/A   Scattered Clouds
6:05 PM 75.2 °F - 71.6 °F 89% 29.97 in 10.0 mi Calm Calm - N/A Thunderstorm Partly Cloudy
6:53 PM 75.0 °F - 71.1 °F 87% 30.01 in 7.0 mi South 12.7 mph 18.4 mph 0.01 in Rain , Thunderstorm Light Thunderstorms and Rain
7:27 PM 73.4 °F - 71.6 °F 94% 30.00 in 10.0 mi SSE 3.5 mph - 0.01 in Rain , Thunderstorm Light Rain
7:44 PM 73.4 °F - 71.6 °F 94% 29.99 in 9.0 mi ESE 6.9 mph - 0.01 in Rain , Thunderstorm Light Rain
7:53 PM 73.9 °F - 72.0 °F 93% 29.97 in 10.0 mi SE 8.1 mph - 0.01 in Rain , Thunderstorm Light Rain
8:22 PM 75.2 °F - 71.6 °F 89% 29.99 in 8.0 mi Calm Calm - 0.00 in Rain Light Rain
8:33 PM 73.4 °F - 71.6 °F 94% 30.00 in 8.0 mi ENE 3.5 mph - 0.01 in Rain , Thunderstorm Light Rain
8:48 PM 73.4 °F - 71.6 °F 94% 30.00 in 8.0 mi SE 4.6 mph - 0.01 in Rain Light Rain
8:53 PM 73.9 °F - 72.0 °F 93% 29.99 in 8.0 mi Calm Calm - 0.01 in Rain Light Rain
9:53 PM 73.9 °F - 72.0 °F 93% 29.99 in 8.0 mi East 6.9 mph - 0.00 in   Clear
10:53 PM 73.9 °F - 72.0 °F 93% 29.97 in 9.0 mi ESE 3.5 mph - N/A   Clear
11:53 PM 73.0 °F - 72.0 °F 96% 29.98 in 7.0 mi Calm Calm - N/A   Clear